Time,TemperatureF,DewpointF,PressureIn,WindDirection,WindDirectionDegrees,WindSpeedMPH,WindSpeedGustMPH,Humidity,HourlyPrecipIn,Conditions,Clouds,dailyrainin,SoftwareType,DateUTC
2013-05-05 00:00:00,62.9,9.4,29.87,ESE,103,10.0,10.0,12,0.00,,,0.00,Wunderground v.1.15,2013-05-05 06:00:00,
2013-05-05 00:10:00,62.5,9.1,29.87,ESE,110,10.0,10.0,12,0.00,,,0.00,Wunderground v.1.15,2013-05-05 06:10:00,
2013-05-05 00:20:00,62.2,10.7,29.87,ESE,107,9.0,9.0,13,0.00,,,0.00,Wunderground v.1.15,2013-05-05 06:20:00,
2013-05-05 00:30:00,62.0,10.5,29.88,SSE,163,9.0,9.0,13,0.00,,,0.00,Wunderground v.1.15,2013-05-05 06:30:00,
2013-05-05 00:40:00,61.7,11.9,29.87,ESE,109,11.0,22.0,14,0.00,,,0.00,Wunderground v.1.15,2013-05-05 06:40:00,
2013-05-05 00:50:00,61.4,11.7,29.87,NNE,28,11.0,11.0,14,0.00,,,0.00,Wunderground v.1.15,2013-05-05 06:50:00,
2013-05-05 01:00:00,61.1,11.5,29.87,ENE,59,10.0,10.0,14,0.00,,,0.00,Wunderground v.1.15,2013-05-05 07:00:00,
2013-05-05 01:10:00,60.9,12.9,29.87,NNE,23,9.0,9.0,15,0.00,,,0.00,Wunderground v.1.15,2013-05-05 07:10:00,
2013-05-05 01:20:00,60.5,14.0,29.88,ESE,117,10.0,24.0,16,0.00,,,0.00,Wunderground v.1.15,2013-05-05 07:20:00,
2013-05-05 01:30:00,60.4,13.9,29.88,NE,40,10.0,10.0,16,0.00,,,0.00,Wunderground v.1.15,2013-05-05 07:30:00,
2013-05-05 01:40:00,60.2,15.2,29.88,NW,311,11.0,11.0,17,0.00,,,0.00,Wunderground v.1.15,2013-05-05 07:40:00,
2013-05-05 01:50:00,59.9,14.9,29.88,East,82,10.0,10.0,17,0.00,,,0.00,Wunderground v.1.15,2013-05-05 07:50:00,
2013-05-05 02:00:00,59.8,14.8,29.89,ENE,60,10.0,24.0,17,0.00,,,0.00,Wunderground v.1.15,2013-05-05 08:00:00,
2013-05-05 02:10:00,59.4,14.5,29.88,East,80,10.0,24.0,17,0.00,,,0.00,Wunderground v.1.15,2013-05-05 08:10:00,
2013-05-05 02:20:00,59.0,15.5,29.88,East,83,12.0,12.0,18,0.00,,,0.00,Wunderground v.1.15,2013-05-05 08:20:00,
2013-05-05 02:30:00,58.5,15.1,29.88,East,79,9.0,24.0,18,0.00,,,0.00,Wunderground v.1.15,2013-05-05 08:30:00,
2013-05-05 02:40:00,58.2,14.8,29.88,ENE,76,10.0,24.0,18,0.00,,,0.00,Wunderground v.1.15,2013-05-05 08:40:00,
2013-05-05 02:50:00,58.1,14.8,29.88,North,355,10.0,24.0,18,0.00,,,0.00,Wunderground v.1.15,2013-05-05 08:50:00,
2013-05-05 03:00:00,57.6,15.6,29.88,NNE,31,10.0,10.0,19,0.00,,,0.00,Wunderground v.1.15,2013-05-05 09:00:00,
2013-05-05 03:10:00,57.1,16.3,29.89,ESE,106,10.0,10.0,20,0.00,,,0.00,Wunderground v.1.15,2013-05-05 09:10:00,
2013-05-05 03:20:00,56.2,16.7,29.89,East,98,11.0,11.0,21,0.00,,,0.00,Wunderground v.1.15,2013-05-05 09:20:00,
2013-05-05 03:30:00,55.3,17.0,29.90,ESE,117,10.0,24.0,22,0.00,,,0.00,Wunderground v.1.15,2013-05-05 09:30:00,
2013-05-05 03:40:00,54.9,17.7,29.90,East,92,9.0,9.0,23,0.00,,,0.00,Wunderground v.1.15,2013-05-05 09:40:00,
2013-05-05 03:50:00,54.7,17.6,29.90,ESE,123,10.0,24.0,23,0.00,,,0.00,Wunderground v.1.15,2013-05-05 09:50:00,
2013-05-05 04:00:00,54.5,17.4,29.91,ENE,67,9.0,24.0,23,0.00,,,0.00,Wunderground v.1.15,2013-05-05 10:00:00,
2013-05-05 04:10:00,54.6,17.5,29.91,East,85,10.0,24.0,23,0.00,,,0.00,Wunderground v.1.15,2013-05-05 10:10:00,
2013-05-05 04:20:00,54.4,17.3,29.92,NNE,28,10.0,10.0,23,0.00,,,0.00,Wunderground v.1.15,2013-05-05 10:20:00,
2013-05-05 04:30:00,54.3,18.2,29.92,ENE,74,9.0,9.0,24,0.00,,,0.00,Wunderground v.1.15,2013-05-05 10:30:00,
2013-05-05 04:40:00,54.0,18.0,29.92,SSE,159,8.0,8.0,24,0.00,,,0.00,Wunderground v.1.15,2013-05-05 10:40:00,
2013-05-05 04:50:00,53.9,17.9,29.92,East,88,7.0,24.0,24,0.00,,,0.00,Wunderground v.1.15,2013-05-05 10:50:00,
2013-05-05 05:00:00,53.7,17.7,29.92,ENE,66,7.0,24.0,24,0.00,,,0.00,Wunderground v.1.15,2013-05-05 11:00:00,
2013-05-05 05:10:00,53.6,17.6,29.93,East,98,8.0,24.0,24,0.00,,,0.00,Wunderground v.1.15,2013-05-05 11:10:00,
2013-05-05 05:20:00,53.5,17.5,29.93,SE,130,10.0,10.0,24,0.00,,,0.00,Wunderground v.1.15,2013-05-05 11:20:00,
2013-05-05 05:30:00,53.3,17.4,29.93,East,94,9.0,24.0,24,0.00,,,0.00,Wunderground v.1.15,2013-05-05 11:30:00,
2013-05-05 05:40:00,53.3,16.4,29.93,SE,142,10.0,24.0,23,0.00,,,0.00,Wunderground v.1.15,2013-05-05 11:40:00,
2013-05-05 05:50:00,53.2,17.3,29.93,ESE,102,9.0,24.0,24,0.00,,,0.00,Wunderground v.1.15,2013-05-05 11:50:00,
2013-05-05 06:00:00,53.5,16.6,29.93,ESE,109,9.0,24.0,23,0.00,,,0.00,Wunderground v.1.15,2013-05-05 12:00:00,
2013-05-05 06:10:00,53.4,16.5,29.94,ESE,109,7.0,24.0,23,0.00,,,0.00,Wunderground v.1.15,2013-05-05 12:10:00,
2013-05-05 06:20:00,53.1,17.2,29.95,ENE,77,7.0,24.0,24,0.00,,,0.00,Wunderground v.1.15,2013-05-05 12:20:00,
2013-05-05 06:30:00,53.2,17.3,29.96,ENE,58,7.0,24.0,24,0.00,,,0.00,Wunderground v.1.15,2013-05-05 12:30:00,
2013-05-05 06:40:00,53.0,17.1,29.96,ENE,74,7.0,24.0,24,0.00,,,0.00,Wunderground v.1.15,2013-05-05 12:40:00,
2013-05-05 06:50:00,53.1,17.2,29.97,East,92,6.0,24.0,24,0.00,,,0.00,Wunderground v.1.15,2013-05-05 12:50:00,
2013-05-05 07:00:00,53.0,17.1,29.98,East,94,8.0,8.0,24,0.00,,,0.00,Wunderground v.1.15,2013-05-05 13:00:00,
2013-05-05 07:10:00,53.3,17.4,29.98,East,88,7.0,24.0,24,0.00,,,0.00,Wunderground v.1.15,2013-05-05 13:10:00,
2013-05-05 07:20:00,53.7,17.7,29.98,East,86,8.0,8.0,24,0.00,,,0.00,Wunderground v.1.15,2013-05-05 13:20:00,
2013-05-05 07:30:00,53.7,16.7,29.98,ESE,117,6.0,24.0,23,0.00,,,0.00,Wunderground v.1.15,2013-05-05 13:30:00,
2013-05-05 07:40:00,53.2,16.3,29.98,ESE,113,8.0,24.0,23,0.00,,,0.00,Wunderground v.1.15,2013-05-05 13:40:00,
2013-05-05 07:50:00,53.9,16.9,29.98,East,97,8.0,8.0,23,0.00,,,0.00,Wunderground v.1.15,2013-05-05 13:50:00,
2013-05-05 08:00:00,53.8,16.8,29.99,SE,139,8.0,24.0,23,0.00,,,0.00,Wunderground v.1.15,2013-05-05 14:00:00,
2013-05-05 08:10:00,54.4,16.3,29.98,ESE,102,6.0,24.0,22,0.00,,,0.00,Wunderground v.1.15,2013-05-05 14:10:00,
2013-05-05 08:20:00,54.6,16.5,29.98,ESE,103,6.0,24.0,22,0.00,,,0.00,Wunderground v.1.15,2013-05-05 14:20:00,
2013-05-05 08:30:00,54.8,16.6,29.98,East,86,6.0,24.0,22,0.00,,,0.00,Wunderground v.1.15,2013-05-05 14:30:00,
2013-05-05 08:40:00,55.4,16.1,29.99,ENE,63,4.0,24.0,21,0.00,,,0.00,Wunderground v.1.15,2013-05-05 14:40:00,
2013-05-05 08:50:00,55.9,16.5,30.00,NE,44,6.0,24.0,21,0.00,,,0.00,Wunderground v.1.15,2013-05-05 14:50:00,
2013-05-05 09:00:00,56.5,15.8,30.00,NE,46,6.0,24.0,20,0.00,,,0.00,Wunderground v.1.15,2013-05-05 15:00:00,
2013-05-05 09:10:00,57.9,17.0,30.00,East,80,5.0,24.0,20,0.00,,,0.00,Wunderground v.1.15,2013-05-05 15:10:00,
2013-05-05 09:20:00,58.8,16.6,30.00,ENE,64,5.0,5.0,19,0.00,,,0.00,Wunderground v.1.15,2013-05-05 15:20:00,
2013-05-05 09:30:00,60.3,17.8,30.00,ENE,69,4.0,24.0,19,0.00,,,0.00,Wunderground v.1.15,2013-05-05 15:30:00,
2013-05-05 09:40:00,60.7,16.9,30.00,SE,138,5.0,5.0,18,0.00,,,0.00,Wunderground v.1.15,2013-05-05 15:40:00,
2013-05-05 09:50:00,60.5,16.7,30.00,ESE,116,7.0,24.0,18,0.00,,,0.00,Wunderground v.1.15,2013-05-05 15:50:00,
2013-05-05 10:00:00,60.1,17.6,30.00,ESE,105,6.0,6.0,19,0.00,,,0.00,Wunderground v.1.15,2013-05-05 16:00:00,
2013-05-05 10:10:00,61.3,17.4,30.00,ESE,103,3.0,3.0,18,0.00,,,0.00,Wunderground v.1.15,2013-05-05 16:10:00,
2013-05-05 10:20:00,60.2,16.5,30.00,ESE,111,5.0,24.0,18,0.00,,,0.00,Wunderground v.1.15,2013-05-05 16:20:00,
2013-05-05 10:30:00,60.9,18.3,30.00,ESE,102,6.0,6.0,19,0.00,,,0.00,Wunderground v.1.15,2013-05-05 16:30:00,
2013-05-05 10:40:00,62.3,18.2,30.00,ESE,103,5.0,24.0,18,0.00,,,0.00,Wunderground v.1.15,2013-05-05 16:40:00,
2013-05-05 10:50:00,63.2,17.6,29.99,SSE,159,6.0,24.0,17,0.00,,,0.00,Wunderground v.1.15,2013-05-05 16:50:00,
2013-05-05 11:00:00,63.0,18.8,29.99,ESE,105,7.0,7.0,18,0.00,,,0.00,Wunderground v.1.15,2013-05-05 17:00:00,
2013-05-05 11:10:00,64.4,18.6,29.99,ESE,107,4.0,24.0,17,0.00,,,0.00,Wunderground v.1.15,2013-05-05 17:10:00,
2013-05-05 11:20:00,63.8,18.1,29.98,ESE,117,6.0,24.0,17,0.00,,,0.00,Wunderground v.1.15,2013-05-05 17:20:00,
2013-05-05 11:30:00,63.8,18.1,29.98,ESE,107,5.0,5.0,17,0.00,,,0.00,Wunderground v.1.15,2013-05-05 17:30:00,
2013-05-05 11:40:00,63.9,18.2,29.98,SSE,167,4.0,24.0,17,0.00,,,0.00,Wunderground v.1.15,2013-05-05 17:40:00,
2013-05-05 11:50:00,63.5,20.5,29.98,ESE,103,6.0,6.0,19,0.00,,,0.00,Wunderground v.1.15,2013-05-05 17:50:00,
2013-05-05 12:00:00,64.1,22.2,29.98,ESE,110,5.0,24.0,20,0.00,,,0.00,Wunderground v.1.15,2013-05-05 18:00:00,
2013-05-05 12:10:00,63.4,21.6,29.97,East,94,5.0,5.0,20,0.00,,,0.00,Wunderground v.1.15,2013-05-05 18:10:00,
2013-05-05 12:20:00,64.4,21.2,29.96,NE,44,4.0,4.0,19,0.00,,,0.00,Wunderground v.1.15,2013-05-05 18:20:00,
2013-05-05 12:30:00,65.8,21.1,29.96,SE,137,4.0,24.0,18,0.00,,,0.00,Wunderground v.1.15,2013-05-05 18:30:00,
2013-05-05 12:40:00,66.0,22.5,29.95,ESE,109,4.0,4.0,19,0.00,,,0.00,Wunderground v.1.15,2013-05-05 18:40:00,
2013-05-05 12:50:00,68.1,23.0,29.95,ESE,109,3.0,3.0,18,0.00,,,0.00,Wunderground v.1.15,2013-05-05 18:50:00,
2013-05-05 13:00:00,67.9,21.4,29.94,ESE,109,5.0,5.0,17,0.00,,,0.00,Wunderground v.1.15,2013-05-05 19:00:00,
2013-05-05 13:10:00,69.1,22.4,29.93,East,82,4.0,4.0,17,0.00,,,0.00,Wunderground v.1.15,2013-05-05 19:10:00,
2013-05-05 13:20:00,69.2,22.5,29.93,ESE,104,3.0,3.0,17,0.00,,,0.00,Wunderground v.1.15,2013-05-05 19:20:00,
2013-05-05 13:30:00,68.8,22.2,29.92,SSE,161,4.0,4.0,17,0.00,,,0.00,Wunderground v.1.15,2013-05-05 19:30:00,
2013-05-05 13:40:00,69.9,23.1,29.92,East,91,3.0,3.0,17,0.00,,,0.00,Wunderground v.1.15,2013-05-05 19:40:00,
2013-05-05 13:50:00,70.6,23.6,29.91,SSW,192,3.0,3.0,17,0.00,,,0.00,Wunderground v.1.15,2013-05-05 19:50:00,
2013-05-05 14:00:00,69.7,26.8,29.91,ESE,105,8.0,24.0,20,0.00,,,0.00,Wunderground v.1.15,2013-05-05 20:00:00,
2013-05-05 14:10:00,70.9,29.0,29.90,ESE,114,3.0,3.0,21,0.00,,,0.00,Wunderground v.1.15,2013-05-05 20:10:00,
2013-05-05 14:20:00,71.4,27.0,29.90,South,179,5.0,24.0,19,0.00,,,0.00,Wunderground v.1.15,2013-05-05 20:20:00,
2013-05-05 14:30:00,71.6,27.1,29.89,SSE,149,3.0,24.0,19,0.00,,,0.00,Wunderground v.1.15,2013-05-05 20:30:00,
2013-05-05 14:40:00,72.5,26.5,29.88,East,84,2.0,24.0,18,0.00,,,0.00,Wunderground v.1.15,2013-05-05 20:40:00,
2013-05-05 14:50:00,72.8,26.8,29.89,SW,227,2.0,24.0,18,0.00,,,0.00,Wunderground v.1.15,2013-05-05 20:50:00,
2013-05-05 15:00:00,72.2,27.6,29.88,WSW,239,7.0,7.0,19,0.00,,,0.00,Wunderground v.1.15,2013-05-05 21:00:00,
2013-05-05 15:10:00,71.5,27.0,29.88,WSW,246,5.0,5.0,19,0.00,,,0.00,Wunderground v.1.15,2013-05-05 21:10:00,
2013-05-05 15:20:00,71.3,28.1,29.87,WSW,246,1.0,24.0,20,0.00,,,0.00,Wunderground v.1.15,2013-05-05 21:20:00,
2013-05-05 15:30:00,71.1,28.0,29.88,WSW,246,3.0,24.0,20,0.00,,,0.00,Wunderground v.1.15,2013-05-05 21:30:00,
2013-05-05 15:40:00,70.6,27.5,29.88,South,188,9.0,24.0,20,0.00,,,0.00,Wunderground v.1.15,2013-05-05 21:40:00,
2013-05-05 15:50:00,70.0,27.0,29.87,SSW,198,9.0,9.0,20,0.00,,,0.00,Wunderground v.1.15,2013-05-05 21:50:00,
2013-05-05 16:00:00,71.1,26.7,29.86,SW,218,2.0,2.0,19,0.00,,,0.00,Wunderground v.1.15,2013-05-05 22:00:00,
2013-05-05 16:10:00,71.9,26.1,29.85,South,190,2.0,24.0,18,0.00,,,0.00,Wunderground v.1.15,2013-05-05 22:10:00,
2013-05-05 16:20:00,72.3,26.4,29.85,SSE,149,1.0,24.0,18,0.00,,,0.00,Wunderground v.1.15,2013-05-05 22:20:00,
2013-05-05 16:30:00,71.4,25.7,29.85,SE,139,3.0,3.0,18,0.00,,,0.00,Wunderground v.1.15,2013-05-05 22:30:00,
2013-05-05 16:40:00,70.9,26.5,29.85,SE,142,3.0,3.0,19,0.00,,,0.00,Wunderground v.1.15,2013-05-05 22:40:00,
2013-05-05 16:50:00,71.0,25.3,29.85,SSE,160,3.0,24.0,18,0.00,,,0.00,Wunderground v.1.15,2013-05-05 22:50:00,
2013-05-05 17:00:00,70.7,26.4,29.85,South,179,6.0,24.0,19,0.00,,,0.00,Wunderground v.1.15,2013-05-05 23:00:00,
2013-05-05 17:10:00,69.2,28.7,29.86,SE,126,8.0,8.0,22,0.00,,,0.00,Wunderground v.1.15,2013-05-05 23:10:00,
2013-05-05 17:20:00,69.5,26.6,29.85,SE,140,4.0,4.0,20,0.00,,,0.00,Wunderground v.1.15,2013-05-05 23:20:00,
2013-05-05 17:30:00,69.9,28.2,29.85,SE,144,1.0,1.0,21,0.00,,,0.00,Wunderground v.1.15,2013-05-05 23:30:00,
2013-05-05 17:40:00,70.1,27.1,29.85,SE,138,1.0,1.0,20,0.00,,,0.00,Wunderground v.1.15,2013-05-05 23:40:00,
2013-05-05 17:50:00,70.1,27.1,29.85,SSE,156,1.0,24.0,20,0.00,,,0.00,Wunderground v.1.15,2013-05-05 23:50:00,
2013-05-05 18:00:00,70.2,27.2,29.84,SSE,163,0.0,24.0,20,0.00,,,0.00,Wunderground v.1.15,2013-05-06 00:00:00,
2013-05-05 18:10:00,70.4,27.4,29.85,SW,227,2.0,24.0,20,0.00,,,0.00,Wunderground v.1.15,2013-05-06 00:10:00,
2013-05-05 18:20:00,70.4,29.7,29.85,SSW,196,8.0,24.0,22,0.00,,,0.00,Wunderground v.1.15,2013-05-06 00:20:00,
2013-05-05 18:30:00,69.1,30.8,29.86,SSW,207,13.0,13.0,24,0.00,,,0.00,Wunderground v.1.15,2013-05-06 00:30:00,
2013-05-05 18:40:00,69.0,30.7,29.86,SSE,167,8.0,8.0,24,0.00,,,0.00,Wunderground v.1.15,2013-05-06 00:40:00,
2013-05-05 18:50:00,69.2,30.8,29.85,SSE,161,7.0,7.0,24,0.00,,,0.00,Wunderground v.1.15,2013-05-06 00:50:00,
2013-05-05 19:00:00,69.2,30.8,29.86,SE,127,7.0,24.0,24,0.00,,,0.00,Wunderground v.1.15,2013-05-06 01:00:00,
2013-05-05 19:10:00,68.8,31.5,29.86,SE,143,8.0,24.0,25,0.00,,,0.00,Wunderground v.1.15,2013-05-06 01:10:00,
2013-05-05 19:20:00,68.3,33.9,29.86,East,86,6.0,24.0,28,0.00,,,0.00,Wunderground v.1.15,2013-05-06 01:20:00,
2013-05-05 19:30:00,67.5,32.3,29.85,ENE,74,3.0,24.0,27,0.00,,,0.00,Wunderground v.1.15,2013-05-06 01:30:00,
2013-05-05 19:40:00,67.3,33.1,29.86,ENE,72,2.0,24.0,28,0.00,,,0.00,Wunderground v.1.15,2013-05-06 01:40:00,
2013-05-05 19:50:00,66.8,32.6,29.85,NNE,30,4.0,24.0,28,0.00,,,0.00,Wunderground v.1.15,2013-05-06 01:50:00,
2013-05-05 20:00:00,66.5,33.2,29.84,NNE,32,6.0,6.0,29,0.00,,,0.00,Wunderground v.1.15,2013-05-06 02:00:00,
2013-05-05 20:10:00,66.8,31.7,29.84,East,88,3.0,24.0,27,0.00,,,0.00,Wunderground v.1.15,2013-05-06 02:10:00,
2013-05-05 20:20:00,67.2,31.1,29.84,ESE,109,3.0,24.0,26,0.00,,,0.00,Wunderground v.1.15,2013-05-06 02:20:00,
2013-05-05 20:30:00,67.2,31.1,29.84,ESE,123,3.0,3.0,26,0.00,,,0.00,Wunderground v.1.15,2013-05-06 02:30:00,
2013-05-05 20:40:00,66.8,30.8,29.85,East,96,4.0,24.0,26,0.00,,,0.00,Wunderground v.1.15,2013-05-06 02:40:00,
2013-05-05 20:50:00,66.4,29.5,29.85,East,82,5.0,24.0,25,0.00,,,0.00,Wunderground v.1.15,2013-05-06 02:50:00,
2013-05-05 21:00:00,66.2,27.3,29.85,East,82,5.0,5.0,23,0.00,,,0.00,Wunderground v.1.15,2013-05-06 03:00:00,
2013-05-05 21:10:00,65.9,23.7,29.85,East,90,5.0,5.0,20,0.00,,,0.00,Wunderground v.1.15,2013-05-06 03:10:00,
2013-05-05 21:20:00,65.4,22.0,29.85,East,83,6.0,6.0,19,0.00,,,0.00,Wunderground v.1.15,2013-05-06 03:20:00,
2013-05-05 21:30:00,65.2,21.9,29.85,East,99,4.0,4.0,19,0.00,,,0.00,Wunderground v.1.15,2013-05-06 03:30:00,
2013-05-05 21:40:00,64.5,18.7,29.86,ESE,111,7.0,7.0,17,0.00,,,0.00,Wunderground v.1.15,2013-05-06 03:40:00,
2013-05-05 21:50:00,64.0,16.8,29.87,ESE,112,5.0,5.0,16,0.00,,,0.00,Wunderground v.1.15,2013-05-06 03:50:00,
2013-05-05 22:00:00,63.6,16.5,29.87,ESE,112,7.0,24.0,16,0.00,,,0.00,Wunderground v.1.15,2013-05-06 04:00:00,
2013-05-05 22:10:00,63.3,16.3,29.88,South,171,8.0,8.0,16,0.00,,,0.00,Wunderground v.1.15,2013-05-06 04:10:00,
2013-05-05 22:20:00,63.1,16.1,29.87,East,96,5.0,24.0,16,0.00,,,0.00,Wunderground v.1.15,2013-05-06 04:20:00,
2013-05-05 22:30:00,63.0,16.0,29.88,ESE,119,5.0,5.0,16,0.00,,,0.00,Wunderground v.1.15,2013-05-06 04:30:00,
2013-05-05 22:40:00,62.9,17.4,29.87,ESE,112,5.0,5.0,17,0.00,,,0.00,Wunderground v.1.15,2013-05-06 04:40:00,
2013-05-05 22:50:00,63.0,17.4,29.87,NE,43,5.0,5.0,17,0.00,,,0.00,Wunderground v.1.15,2013-05-06 04:50:00,
2013-05-05 23:00:00,63.1,17.5,29.87,ESE,123,7.0,7.0,17,0.00,,,0.00,Wunderground v.1.15,2013-05-06 05:00:00,
2013-05-05 23:10:00,62.9,17.4,29.86,East,89,6.0,6.0,17,0.00,,,0.00,Wunderground v.1.15,2013-05-06 05:10:00,
2013-05-05 23:20:00,62.9,17.4,29.87,East,84,6.0,6.0,17,0.00,,,0.00,Wunderground v.1.15,2013-05-06 05:20:00,
2013-05-05 23:30:00,62.8,17.3,29.86,East,89,6.0,24.0,17,0.00,,,0.00,Wunderground v.1.15,2013-05-06 05:30:00,
2013-05-05 23:40:00,62.9,17.4,29.86,East,92,6.0,24.0,17,0.00,,,0.00,Wunderground v.1.15,2013-05-06 05:40:00,
2013-05-05 23:50:00,62.8,17.3,29.86,ESE,104,7.0,7.0,17,0.00,,,0.00,Wunderground v.1.15,2013-05-06 05:50:00,